Regional Weather Roundup
Issued by NWS

Home | Current Version | Previous Version | Graphics & Text | Print | Product List | Glossary Off
Versions: 1 2 3 4 5 6 7 8 9 10 11 12 13 14 15 16 17 18 19 20 21 22 23 24 25 26 27 28 29 30 31 32 33 34 35 36 37 38 39 40 41 42 43 44 45 46 47 48 49 50

000
ASUS43 KTOP 221659
RWRKS

WEATHER ROUNDUP FOR KANSAS
NATIONAL WEATHER SERVICE GOODLAND KS
1200 PM CDT WED OCT 22 2014

NOTE:  "FAIR" INDICATES FEW OR NO CLOUDS BELOW 12,000 FEET WITH NO
SIGNIFICANT WEATHER AND/OR OBSTRUCTIONS TO VISIBILITY.

KSZ001>006-013>018-027>032-041>047-221800-
NORTHWEST KANSAS

CITY           SKY/WX    TMP DP  RH WIND       PRES   REMARKS
GOODLAND       PTSUNNY   65  48  54 N15G21    30.05R
HAYS           CLOUDY    68  52  56 S12       30.04S
HILL CITY      CLOUDY    68  55  63 S14       30.03S
RUSSELL        MOSUNNY   74  53  48 S20G29    30.03S
$$

KSZ061>065-074>080-084>089-221800-
SOUTHWEST KANSAS

CITY           SKY/WX    TMP DP  RH WIND       PRES   REMARKS
DODGE CITY     CLOUDY    65  54  67 S18       30.07R
ELKHART          N/A     67  53  61 S14         N/A
GARDEN CITY    PTSUNNY   68  55  63 S23G31    30.03S
GREAT BEND     MOSUNNY   73  54  49 S24G32    30.06S
LIBERAL        CLOUDY    72  55  56 S21G26    30.08S
$$

KSZ066>073-081>083-090>101-221800-
SOUTHEAST KANSAS

CITY           SKY/WX    TMP DP  RH WIND       PRES   REMARKS
CHANUTE        PTSUNNY   68  59  73 S9        30.18F
COFFEYVILLE    SUNNY     72  61  68 S9        30.18S
HUTCHINSON     SUNNY     75  53  46 S17       30.10F
NEWTON         SUNNY     73  54  49 S17G23    30.15S
PARSONS        SUNNY     73  61  65 S8        30.19F
WICHITA INTL   MOSUNNY   75  54  47 S16       30.12F
WICHITA JABRA  SUNNY     74  54  49 S20       30.13S
WINFIELD       SUNNY     75  60  59 S15       30.16S
$$

KSZ007>012-019>026-033>040-048>060-102>105-221800-
NORTHEAST KANSAS

CITY           SKY/WX    TMP DP  RH WIND       PRES   REMARKS
CONCORDIA      SUNNY     73  57  57 MISG      30.07F
EMPORIA        MOSUNNY   72  59  63 S10G20    30.14F
LAWRENCE       SUNNY     67  52  58 SE10      30.17F
MANHATTAN      SUNNY     76  56  49 S12       30.11S
OLATHE IND     MOSUNNY   66  51  58 S12       30.19F
OLATHE EXE     SUNNY     63  51  65 S10       30.19S
SALINA         SUNNY     75  56  51 S10G25    30.09F
TOPEKA BILLARD SUNNY     70  56  61 SE10      30.15F
TOPEKA FORBES  SUNNY     71  56  58 SE13      30.15F
$$



USA.gov is the U.S. government's official web portal to all federal, state and local government web resources and services.